COSMOS 2413 (712)

Last updated on Sun May 29 2016 17:40:57 GMT+0000 (Coordinated Universal Time)

1 28509U 04053B 16150.24129973 .00000074 00000-0 00000+0 0 9996 2 28509 63.1278 190.7764 0005319 178.4723 180.6614 2.13101856 88893
UTC large
Height (km)
Speed (km/s)
/
Latitude / Longitude
Inclination (degrees)
Orbital Period (minutes)
Azimuth
Elevation
Range (km)
Doppler Factor

Next 0 passes for location: London (51.5072 / 0.1276)

Sorry there are no passes over London.